Weather History for Frederick, MD

Change the Weather History Date:

Thursday, January 23, 2014

  Actual Average (KHGR) Record (KHGR)
Temperature  
Mean Temperature 14 °F -  
Max Temperature 26 °F 34 °F 59 °F (1999)
Min Temperature 3 °F 20 °F 4 °F (2014)
Degree Days  
Heating Degree Days 50    
Moisture  
Dew Point 3 °F    
Average Humidity 65    
Maximum Humidity 92    
Minimum Humidity 51    
Precipitation  
Precipitation 0.00 in - - ()
Sea Level Pressure  
Sea Level Pressure 30.26 in    
Wind  
Wind Speed 6 mph (West)    
Max Wind Speed 18 mph    
Max Gust Speed 25 mph    
Visibility 10 miles    
Events Snow    
Averages and records for this station are not official NWS values.
T = Trace of Precipitation, MM = Missing Value Source: NWS Daily Summary

Daily Weather History Graph

Daily Weather History Graph

Search for Another Location

Airport:

Trip Planner

Search our weather history database for the weather conditions in past years. The results will help you decide how hot, cold, wet, or windy it might be!

Date:

Astronomy

Jan. 23, 2014 Rise Set
Actual Time 7:23 AM EST 5:19 PM EST
Civil Twilight 6:54 AM EST 5:48 PM EST
Nautical Twilight 6:22 AM EST 6:20 PM EST
Astronomical Twilight 5:50 AM EST 6:52 PM EST
Moon No Moon Rise 11:00 AM EST (1/23)
Length of Visible Light 10h 53m
Length of Day
9h 55m
Waning Gibbous, 55% of the Moon is Illuminated
Jan 23
Waning Gibbous
Jan 24
Last Quarter
Jan 30
New
Feb 6
First Quarter
Feb 14
Full

Hourly Weather History & Observations

Time (EST) Temp. Windchill Dew Point Humidity Pressure Visibility Wind Dir Wind Speed Gust Speed Precip Events Conditions
12:00 AM 14.0 °F 2.9 °F 1.4 °F 57% 30.12 in 10.0 mi WNW 8.1 mph - N/A   Overcast
12:20 AM 12.2 °F -0.2 °F 1.4 °F 62% 30.12 in 10.0 mi WNW 9.2 mph - N/A   Mostly Cloudy
12:40 AM 14.0 °F 8.2 °F 1.4 °F 57% 30.12 in 10.0 mi NNW 3.5 mph - N/A   Mostly Cloudy
1:00 AM 14.0 °F - 1.4 °F 57% 30.12 in 10.0 mi Calm Calm - N/A   Overcast
1:20 AM 14.0 °F - 1.4 °F 57% 30.12 in 10.0 mi Calm Calm - N/A   Overcast
1:40 AM 12.2 °F - 1.4 °F 62% 30.12 in 10.0 mi Calm Calm - N/A   Overcast
2:00 AM 14.0 °F - 3.2 °F 62% 30.13 in 10.0 mi Calm Calm - N/A   Overcast
2:20 AM 12.2 °F - 3.2 °F 67% 30.14 in 10.0 mi Calm Calm - N/A   Overcast
2:40 AM 12.2 °F 6.1 °F 3.2 °F 67% 30.14 in 10.0 mi SSE 3.5 mph - N/A   Overcast
3:00 AM 10.4 °F - 3.2 °F 73% 30.14 in 10.0 mi Calm Calm - N/A   Overcast
3:20 AM 8.6 °F -2.6 °F 1.4 °F 73% 30.15 in 10.0 mi SW 6.9 mph - N/A   Overcast
3:40 AM 8.6 °F -1.3 °F 1.4 °F 73% 30.15 in 10.0 mi SSW 5.8 mph - N/A   Overcast
4:00 AM 8.6 °F -1.3 °F 1.4 °F 73% 30.15 in 10.0 mi SSW 5.8 mph - N/A   Overcast
4:20 AM 5.0 °F -2.1 °F 1.4 °F 85% 30.15 in 10.0 mi SW 3.5 mph - N/A   Overcast
4:40 AM 8.6 °F 2.0 °F 1.4 °F 73% 30.15 in 10.0 mi South 3.5 mph - N/A   Mostly Cloudy
5:00 AM 8.6 °F 0.1 °F 3.2 °F 79% 30.16 in 10.0 mi South 4.6 mph - N/A   Scattered Clouds
5:20 AM 3.2 °F - -0.4 °F 85% 30.17 in 10.0 mi Calm Calm - N/A   Scattered Clouds
5:40 AM 5.0 °F - 3.2 °F 92% 30.17 in 10.0 mi Calm Calm - N/A   Scattered Clouds
6:45 AM 5.0 °F -4.1 °F 3.2 °F 92% 30.18 in 10.0 mi South 4.6 mph - N/A   Mostly Cloudy
7:45 AM 5.0 °F - 1.4 °F 85% 30.20 in 10.0 mi Calm Calm - N/A   Mostly Cloudy
8:45 AM 8.6 °F - 3.2 °F 79% 30.21 in 10.0 mi Calm Calm - N/A   Overcast
10:00 AM 14.0 °F 6.5 °F 5.0 °F 67% 30.24 in 10.0 mi SW 4.6 mph - N/A   Overcast
11:45 AM 19.4 °F 11.5 °F 8.6 °F 63% 30.25 in 10.0 mi WSW 5.8 mph - N/A   Overcast
12:55 PM 26.6 °F 18.2 °F 10.4 °F 51% 30.23 in 10.0 mi West 8.1 mph - N/A   Scattered Clouds
1:50 PM 21.2 °F 14.9 °F 12.2 °F 68% 30.23 in 5.0 mi West 4.6 mph - N/A Snow Light Snow
2:45 PM 21.2 °F 6.4 °F 10.4 °F 63% 30.26 in 5.0 mi WNW 18.4 mph 23.0 mph N/A Snow Light Snow
3:45 PM 21.2 °F 8.3 °F 10.4 °F 63% 30.28 in 10.0 mi WNW 13.8 mph 18.4 mph N/A   Mostly Cloudy
4:48 PM 19.4 °F 5.5 °F 6.8 °F 58% 30.32 in 10.0 mi WNW 15.0 mph 20.7 mph N/A   Mostly Cloudy
6:48 PM 15.8 °F 6.1 °F 1.4 °F 53% 30.39 in - West 6.9 mph 17.3 mph N/A   Mostly Cloudy
7:48 PM 15.8 °F 3.4 °F 1.4 °F 53% 30.43 in 10.0 mi NW 10.4 mph 17.3 mph N/A   Scattered Clouds
8:00 PM 15.8 °F 0.9 °F 1.4 °F 53% 30.43 in 10.0 mi WNW 15.0 mph 19.6 mph N/A   Clear
8:20 PM 15.8 °F 3.4 °F 1.4 °F 53% 30.44 in 10.0 mi WNW 10.4 mph 18.4 mph N/A   Clear
8:40 PM 15.8 °F 2.7 °F 1.4 °F 53% 30.44 in 10.0 mi WNW 11.5 mph - N/A   Clear
9:00 PM 14.0 °F -0.2 °F 1.4 °F 57% 30.44 in 10.0 mi West 12.7 mph 19.6 mph N/A   Clear
9:20 PM 14.0 °F 1.2 °F 1.4 °F 57% 30.44 in 10.0 mi West 10.4 mph 18.4 mph N/A   Clear
9:40 PM 14.0 °F -0.2 °F 1.4 °F 57% 30.45 in 10.0 mi West 12.7 mph 18.4 mph N/A   Clear
10:00 PM 14.0 °F -2.0 °F 1.4 °F 57% 30.44 in 10.0 mi West 16.1 mph 25.3 mph N/A   Clear
10:20 PM 14.0 °F -0.2 °F 1.4 °F 57% 30.45 in 10.0 mi West 12.7 mph 24.2 mph N/A   Clear
10:40 PM 14.0 °F 0.5 °F 1.4 °F 57% 30.45 in 10.0 mi West 11.5 mph 16.1 mph N/A   Clear
11:00 PM 14.0 °F 2.0 °F 1.4 °F 57% 30.47 in 10.0 mi WNW 9.2 mph - N/A   Clear
11:20 PM 14.0 °F 8.2 °F 1.4 °F 57% 30.47 in 10.0 mi NW 3.5 mph - N/A   Clear
11:45 PM 12.2 °F -1.0 °F 1.4 °F 62% 30.46 in 10.0 mi WNW 10.4 mph 17.3 mph N/A   Clear